Regional Weather Roundup
Issued by NWS Albany, NY

Home | Current Version | Previous Version | Graphics & Text | Print | Product List | Glossary Off
Versions: 1 2 3 4 5 6 7 8 9 10 11 12 13 14 15 16 17 18 19 20 21 22 23 24 25 26 27 28 29 30 31 32 33 34 35 36 37 38 39 40 41 42 43 44 45 46 47 48 49 50

000
ASUS41 KALY 190110
RWRALY

NEW YORK STATE HOURLY WEATHER ROUNDUP
NATIONAL WEATHER SERVICE ALBANY NY
900 PM EDT THU SEP 18 2014

NOTE: "FAIR" INDICATES FEW OR NO CLOUDS BELOW 12,000 FEET WITH NO
SIGNIFICANT WEATHER AND/OR NO OBSTRUCTIONS TO VISIBILITY.

NYZ032-033-038>043-046>054-057>066-NYZ062>081-190200-
EAST


CITY           SKY/WX    TMP DP  RH WIND       PRES   REMARKS
ALBANY         MOCLDY    53  44  71 N8        30.15R
GLENS FALLS    CLEAR     45  41  86 N3        30.16R
POUGHKEEPSIE   CLOUDY    64  51  62 N9        30.07R
NEWBURGH       MOCLDY    64  52  63 NE8       30.08R
MONTGOMERY     MOCLDY    58  50  75 CALM      30.07R
WHITE PLAINS   PTCLDY    60  50  69 CALM      30.05R
ISLIP          PTCLDY    62  53  72 CALM      30.04R
NEW YORK CITY  PTCLDY    70  51  51 E6        30.04R
CENTRAL PARK   PTCLDY    67  44  43 NE3       30.07R
$$

NYZ005>009-017-018-044>046-055-056-190200-
CENTRAL


CITY           SKY/WX    TMP DP  RH WIND       PRES   REMARKS
FULTON         PTCLDY    45  41  86 CALM      30.19R
SYRACUSE       PTCLDY    50  44  80 NW5       30.19R
ROME           CLEAR     49  40  71 N8        30.17R
ELMIRA         CLOUDY    54  48  80 N10       30.17R
BINGHAMTON     CLOUDY    53  47  79 N10       30.16R
MONTICELLO     CLEAR     54  48  82 NW5       30.12R
$$

NYZ026>034-041>043-190200-
NORTH


CITY           SKY/WX    TMP DP  RH WIND       PRES   REMARKS
WATERTOWN      CLEAR     47  34  60 N9        30.21R
FORT DRUM      NOT AVBL
MASSENA        PTCLDY    44  31  60 N8        30.24R
SARANAC LAKE   PTCLDY    36  32  85 N5        30.16R WCI  32
PLATTSBURGH    PTCLDY    43  37  79 NW6       30.19R
$$

NYZ001>004-010>016-019>021-190200-
WEST


CITY           SKY/WX    TMP DP  RH WIND       PRES   REMARKS
NIAGARA FALLS  PTCLDY    47  44  90 E3        30.19R
BUFFALO        PTCLDY    49  45  86 E3        30.19R
DUNKIRK        CLOUDY    52  49  89 E5        30.18R
JAMESTOWN      PTCLDY    50  46  87 N5        30.17R
WELLSVILLE     CLOUDY    50  46  86 VRB5      30.19R
ROCHESTER      CLEAR     47  45  93 CALM      30.20R
PENN YAN       CLOUDY    51  44  77 N5        30.20R
$$

             KEY
       WCI = WIND CHILL INDEX
       VSB = VISIBILITY
       HX  = HEAT INDEX
$$


USA.gov is the U.S. government's official web portal to all federal, state and local government web resources and services.